Clearfield, PA

3:01 PM EDT on June 22, 2017 (GMT -0400)
Clearfield-Lawrence

Weather History for KFIG - November, 2011

Change the Weather History Date:

Thursday, November 3, 2011

  Actual Average (KDUJ) Record (KDUJ)
Temperature  
Mean Temperature 47 °F -  
Max Temperature 61 °F 53 °F 76 °F (2015)
Min Temperature 33 °F 38 °F 20 °F (1991)
Degree Days  
Heating Degree Days 18    
Moisture  
Dew Point 35 °F    
Average Humidity 72    
Maximum Humidity 96    
Minimum Humidity 38    
Precipitation  
Precipitation 0.00 in - - ()
Sea Level Pressure  
Sea Level Pressure 30.06 in    
Wind  
Wind Speed 2 mph (NW)    
Max Wind Speed 9 mph    
Max Gust Speed -    
Visibility 9 miles    
Events      
Averages and records for this station are not official NWS values.
T = Trace of Precipitation, MM = Missing Value Source: NWS Daily Summary

Daily Weather History Graph

Daily Weather History Graph

Search for Another Location

Airport or City:

Trip Planner

Search our weather history database for the weather conditions in past years. The results will help you decide how hot, cold, wet, or windy it might be!

Date:

Astronomy

Nov. 03, 2011 Rise Set
Actual Time 7:46 AM EDT 6:07 PM EDT
Civil Twilight 7:17 AM EDT 6:35 PM EDT
Nautical Twilight 6:45 AM EDT 7:08 PM EDT
Astronomical Twilight 6:13 AM EDT 7:40 PM EDT
Moon 2:33 PM EDT (11/3) 12:53 AM EDT (11/3)
Length of Visible Light 11h 18m
Length of Day
10h 20m
First Quarter, 60% of the Moon is Illuminated
Nov 3
First Quarter
Nov 10
Full
Nov 18
Last Quarter
Nov 25
New
Dec 2
First Quarter

Hourly Weather History & Observations

Time (EDT) Temp. Windchill Dew Point Humidity Pressure Visibility Wind Dir Wind Speed Gust Speed Precip Events Conditions
12:54 AM 37.9 °F 34.4 °F 35.1 °F 89% 30.19 in 10.0 mi NNW 4.6 mph - N/A   Clear
1:54 AM 39.0 °F - 35.1 °F 86% 30.17 in 10.0 mi Calm Calm - N/A   Clear
2:54 AM 37.9 °F - 34.0 °F 86% 30.16 in 10.0 mi Calm Calm - N/A   Clear
3:54 AM 36.0 °F 33.3 °F 34.0 °F 93% 30.14 in 10.0 mi North 3.5 mph - N/A   Clear
4:54 AM 36.0 °F - 34.0 °F 93% 30.13 in 10.0 mi Calm Calm - N/A   Clear
5:54 AM 35.1 °F - 33.1 °F 92% 30.13 in 8.0 mi Calm Calm - N/A   Clear
6:54 AM 36.0 °F - 33.1 °F 89% 30.12 in 9.0 mi Calm Calm - N/A   Clear
7:54 AM 33.1 °F - 32.0 °F 96% 30.13 in 1.5 mi Calm Calm - N/A   Clear
8:17 AM 33.8 °F - 32.0 °F 93% 30.11 in 2.5 mi Calm Calm - N/A   Clear
8:54 AM 34.0 °F - 33.1 °F 96% 30.14 in 3.0 mi Calm Calm - N/A   Clear
9:01 AM 35.6 °F - 33.8 °F 93% 30.10 in 2.5 mi Calm Calm - N/A   Clear
9:54 AM 39.0 °F - 36.0 °F 89% 30.12 in 10.0 mi Calm Calm - N/A   Clear
10:54 AM 46.9 °F - 37.9 °F 71% 30.09 in 10.0 mi Calm Calm - N/A   Clear
11:54 AM 51.1 °F - 35.1 °F 54% 30.08 in 10.0 mi SSW 4.6 mph - N/A   Clear
12:54 PM 55.9 °F - 37.0 °F 49% 30.05 in 10.0 mi SSW 5.8 mph - N/A   Clear
1:54 PM 61.0 °F - 37.0 °F 41% 30.00 in 10.0 mi SSW 8.1 mph - N/A   Clear
2:54 PM 60.1 °F - 35.1 °F 39% 29.98 in 10.0 mi SSW 9.2 mph - N/A   Clear
3:54 PM 60.1 °F - 34.0 °F 38% 29.96 in 10.0 mi WSW 5.8 mph - N/A   Clear
4:54 PM 59.0 °F - 34.0 °F 39% 29.95 in 10.0 mi Calm Calm - N/A   Clear
5:54 PM 57.0 °F - 34.0 °F 42% 29.96 in 10.0 mi NW 5.8 mph - N/A   Clear
6:54 PM 52.0 °F - 37.0 °F 57% 29.98 in 10.0 mi NNW 5.8 mph - N/A   Clear
7:54 PM 48.0 °F - 37.0 °F 66% 29.98 in 10.0 mi NNW 5.8 mph - N/A   Clear
8:54 PM 46.9 °F - 37.0 °F 68% 29.99 in 10.0 mi Calm Calm - N/A   Clear
9:54 PM 46.9 °F - 36.0 °F 66% 29.98 in 10.0 mi NE 3.5 mph - N/A   Clear
10:54 PM 44.1 °F 40.8 °F 37.0 °F 76% 29.97 in 10.0 mi North 5.8 mph - N/A   Clear
11:54 PM 44.1 °F 41.5 °F 36.0 °F 73% 29.96 in 10.0 mi North 4.6 mph - N/A   Clear